| time (UTC) | temp F | wind direction | speed knots | gust knots | rain 1hr in | rain 24hr in | rain mn in | humidity % | barometer mb |
| 20260508032504 | 53 | 20 | 0.0 | 0.0 | 0.00 | 0.00 | 0.00 | 66 | 1009.7 |
| 20260508032002 | 54 | 20 | 0.0 | 0.0 | 0.00 | 0.00 | 0.00 | 65 | 1009.8 |
| 20260508031459 | 54 | 20 | 0.9 | 0.9 | 0.00 | 0.00 | 0.00 | 65 | 1009.7 |
| 20260508030954 | 54 | 20 | 0.0 | 0.0 | 0.00 | 0.00 | 0.00 | 65 | 1009.8 |
| 20260508030451 | 54 | 20 | 0.0 | 0.0 | 0.00 | 0.00 | 0.00 | 63 | 1009.8 |
| 20260508025949 | 55 | 20 | 0.0 | 0.0 | 0.00 | 0.00 | 0.00 | 63 | 1009.6 |
| 20260508025445 | 56 | 20 | 0.0 | 0.9 | 0.00 | 0.00 | 0.00 | 60 | 1009.8 |
| 20260508024943 | 56 | 20 | 0.0 | 0.9 | 0.00 | 0.00 | 0.00 | 60 | 1009.6 |
| 20260508024438 | 56 | 19 | 0.0 | 0.9 | 0.00 | 0.00 | 0.00 | 60 | 1009.6 |
| 20260508023935 | 57 | 18 | 0.0 | 0.0 | 0.00 | 0.00 | 0.00 | 59 | 1009.7 |
| 20260508023432 | 57 | 18 | 0.9 | 0.9 | 0.00 | 0.00 | 0.00 | 58 | 1009.6 |
| 20260508022929 | 58 | 17 | 0.0 | 0.9 | 0.00 | 0.00 | 0.00 | 57 | 1009.6 |
| 20260508022425 | 58 | 19 | 0.0 | 0.9 | 0.00 | 0.00 | 0.00 | 56 | 1009.4 |
| 20260508021922 | 58 | 16 | 0.9 | 0.9 | 0.00 | 0.00 | 0.00 | 56 | 1009.3 |
| 20260508021418 | 58 | 17 | 0.9 | 1.7 | 0.00 | 0.00 | 0.00 | 56 | 1009.2 |
| 20260508020914 | 59 | 17 | 0.0 | 1.7 | 0.00 | 0.00 | 0.00 | 55 | 1009.2 |
| 20260508020412 | 58 | 1 | 0.0 | 0.9 | 0.00 | 0.00 | 0.00 | 56 | 1009.0 |
| 20260508015909 | 58 | 1 | 0.0 | 0.0 | 0.00 | 0.00 | 0.00 | 57 | 1009.0 |
| 20260508015407 | 59 | 1 | 0.0 | 0.0 | 0.00 | 0.00 | 0.00 | 58 | 1008.9 |
| 20260508014903 | 59 | 2 | 0.0 | 0.9 | 0.00 | 0.00 | 0.00 | 57 | 1008.7 |
| 20260508014400 | 59 | 7 | 0.0 | 0.0 | 0.00 | 0.00 | 0.00 | 56 | 1008.9 |
| 20260508013855 | 60 | 7 | 0.0 | 0.0 | 0.00 | 0.00 | 0.00 | 54 | 1008.7 |
| 20260508013352 | 60 | 8 | 0.9 | 1.7 | 0.00 | 0.00 | 0.00 | 53 | 1008.6 |
| 20260508012849 | 61 | 9 | 0.9 | 2.6 | 0.00 | 0.00 | 0.00 | 52 | 1008.5 |
| 20260508012346 | 61 | 5 | 2.6 | 2.6 | 0.00 | 0.00 | 0.00 | 51 | 1008.6 |
| 20260508011844 | 62 | 355 | 0.9 | 0.9 | 0.00 | 0.00 | 0.00 | 51 | 1008.6 |
| 20260508011342 | 62 | 27 | 1.7 | 6.1 | 0.00 | 0.00 | 0.00 | 49 | 1008.6 |
| 20260508010839 | 62 | 1 | 1.7 | 2.6 | 0.00 | 0.00 | 0.00 | 49 | 1008.4 |
| 20260508010336 | 63 | 359 | 0.9 | 2.6 | 0.00 | 0.00 | 0.00 | 49 | 1008.3 |
| 20260508005833 | 63 | 347 | 0.0 | 2.6 | 0.00 | 0.00 | 0.00 | 51 | 1008.3 |
| 20260508005330 | 63 | 337 | 0.0 | 0.9 | 0.00 | 0.00 | 0.00 | 49 | 1008.3 |
| 20260508004826 | 64 | 357 | 1.7 | 1.7 | 0.00 | 0.00 | 0.00 | 49 | 1008.2 |
| 20260508004322 | 64 | 7 | 2.6 | 7.0 | 0.00 | 0.00 | 0.00 | 48 | 1008.3 |
| 20260508003819 | 65 | 13 | 2.6 | 6.1 | 0.00 | 0.00 | 0.00 | 46 | 1008.0 |
| 20260508003316 | 65 | 29 | 2.6 | 6.1 | 0.00 | 0.00 | 0.00 | 46 | 1008.1 |
| 20260508002813 | 66 | 344 | 1.7 | 2.6 | 0.00 | 0.00 | 0.00 | 46 | 1008.0 |
| 20260508002309 | 66 | 9 | 0.9 | 2.6 | 0.00 | 0.00 | 0.00 | 44 | 1007.9 |
| 20260508001806 | 68 | 343 | 3.5 | 4.3 | 0.00 | 0.00 | 0.00 | 40 | 1007.8 |
| 20260508001301 | 68 | 283 | 0.0 | 0.0 | 0.00 | 0.00 | 0.00 | 41 | 1007.8 |
| 20260508000758 | 68 | 283 | 0.0 | 0.9 | 0.00 | 0.00 | 0.00 | 41 | 1007.7 |
| 20260508000257 | 68 | 271 | 0.0 | 0.9 | 0.00 | 0.00 | 0.00 | 40 | 1007.8 |
| 20260507235751 | 68 | 266 | 0.9 | 2.6 | 0.00 | 0.00 | 0.00 | 38 | 1007.8 |
| 20260507235249 | 68 | 272 | 0.0 | 1.7 | 0.00 | 0.00 | 0.00 | 38 | 1007.8 |
| 20260507234745 | 68 | 249 | 1.7 | 4.3 | 0.00 | 0.00 | 0.00 | 38 | 1007.8 |
| 20260507234242 | 68 | 242 | 1.7 | 1.7 | 0.00 | 0.00 | 0.00 | 40 | 1007.8 |
| 20260507233738 | 68 | 248 | 1.7 | 2.6 | 0.00 | 0.00 | 0.00 | 39 | 1008.0 |
| 20260507233237 | 69 | 208 | 2.6 | 4.3 | 0.00 | 0.00 | 0.00 | 40 | 1007.8 |
| 20260507232734 | 69 | 206 | 2.6 | 4.3 | 0.00 | 0.00 | 0.00 | 39 | 1007.9 |
| 20260507232231 | 69 | 222 | 1.7 | 2.6 | 0.00 | 0.00 | 0.00 | 39 | 1007.9 |
| 20260507231727 | 68 | 275 | 0.9 | 1.7 | 0.00 | 0.00 | 0.00 | 39 | 1008.0 |
| 20260507231224 | 68 | 240 | 2.6 | 2.6 | 0.00 | 0.00 | 0.00 | 39 | 1007.9 |
| 20260507230721 | 68 | 201 | 2.6 | 5.2 | 0.00 | 0.00 | 0.00 | 39 | 1008.2 |
| 20260507230219 | 68 | 235 | 3.5 | 7.8 | 0.00 | 0.00 | 0.00 | 37 | 1008.0 |
| 20260507225717 | 69 | 238 | 4.3 | 7.0 | 0.00 | 0.00 | 0.00 | 36 | 1007.9 |
| 20260507225214 | 69 | 265 | 0.9 | 2.6 | 0.00 | 0.00 | 0.00 | 39 | 1008.0 |
| 20260507224710 | 68 | 216 | 2.6 | 5.2 | 0.00 | 0.00 | 0.00 | 39 | 1008.0 |
| 20260507224207 | 68 | 253 | 3.5 | 6.1 | 0.00 | 0.00 | 0.00 | 38 | 1008.3 |
| 20260507223703 | 68 | 202 | 4.3 | 7.0 | 0.00 | 0.00 | 0.00 | 37 | 1008.4 |
| 20260507223200 | 68 | 235 | 1.7 | 5.2 | 0.00 | 0.00 | 0.00 | 38 | 1008.4 |
| 20260507222657 | 68 | 204 | 4.3 | 7.0 | 0.00 | 0.00 | 0.00 | 36 | 1008.3 |
| 20260507222153 | 68 | 240 | 3.5 | 6.1 | 0.00 | 0.00 | 0.00 | 37 | 1008.4 |
| 20260507221650 | 69 | 270 | 5.2 | 8.7 | 0.00 | 0.00 | 0.00 | 35 | 1008.5 |
| 20260507221146 | 69 | 224 | 5.2 | 8.7 | 0.00 | 0.00 | 0.00 | 35 | 1008.5 |
| 20260507220643 | 70 | 256 | 4.3 | 9.6 | 0.00 | 0.00 | 0.00 | 36 | 1008.3 |
| 20260507220141 | 70 | 218 | 4.3 | 7.0 | 0.00 | 0.00 | 0.00 | 37 | 1008.3 |
| 20260507215637 | 69 | 230 | 3.5 | 5.2 | 0.00 | 0.00 | 0.00 | 36 | 1008.5 |
| 20260507215135 | 69 | 236 | 6.1 | 9.6 | 0.00 | 0.00 | 0.00 | 35 | 1008.5 |
| 20260507214632 | 67 | 246 | 2.6 | 7.0 | 0.00 | 0.00 | 0.00 | 37 | 1008.6 |
| 20260507214128 | 68 | 236 | 3.5 | 5.2 | 0.00 | 0.00 | 0.00 | 38 | 1008.6 |
| 20260507213625 | 68 | 253 | 3.5 | 5.2 | 0.00 | 0.00 | 0.00 | 36 | 1008.7 |
| 20260507213122 | 68 | 201 | 4.3 | 6.1 | 0.00 | 0.00 | 0.00 | 38 | 1008.7 |
| 20260507212618 | 69 | 221 | 7.8 | 12.2 | 0.00 | 0.00 | 0.00 | 36 | 1008.7 |
| 20260507212114 | 69 | 227 | 4.3 | 11.3 | 0.00 | 0.00 | 0.00 | 36 | 1008.6 |
| 20260507211611 | 69 | 273 | 5.2 | 7.0 | 0.00 | 0.00 | 0.00 | 36 | 1008.7 |
| 20260507211107 | 67 | 223 | 2.6 | 7.8 | 0.00 | 0.00 | 0.00 | 38 | 1008.8 |
| 20260507210605 | 68 | 266 | 5.2 | 9.6 | 0.00 | 0.00 | 0.00 | 38 | 1009.0 |
| 20260507205558 | 68 | 194 | 3.5 | 7.8 | 0.00 | 0.00 | 0.00 | 36 | 1008.9 |
| 20260507205054 | 69 | 206 | 5.2 | 12.2 | 0.00 | 0.00 | 0.00 | 37 | 1009.2 |
| 20260507204550 | 69 | 245 | 3.5 | 7.8 | 0.00 | 0.00 | 0.00 | 38 | 1009.0 |
| 20260507204048 | 68 | 205 | 6.1 | 7.8 | 0.00 | 0.00 | 0.00 | 38 | 1009.0 |
| 20260507203546 | 68 | 228 | 4.3 | 8.7 | 0.00 | 0.00 | 0.00 | 37 | 1009.3 |
| 20260507203043 | 67 | 233 | 5.2 | 6.1 | 0.00 | 0.00 | 0.00 | 38 | 1009.3 |
| 20260507202539 | 67 | 243 | 2.6 | 5.2 | 0.00 | 0.00 | 0.00 | 36 | 1009.4 |
| 20260507202035 | 68 | 238 | 4.3 | 9.6 | 0.00 | 0.00 | 0.00 | 36 | 1009.4 |
| 20260507201531 | 68 | 217 | 7.0 | 9.6 | 0.00 | 0.00 | 0.00 | 37 | 1009.4 |
| 20260507201027 | 68 | 223 | 6.1 | 9.6 | 0.00 | 0.00 | 0.00 | 38 | 1009.5 |
| 20260507200523 | 69 | 244 | 5.2 | 7.0 | 0.00 | 0.00 | 0.00 | 36 | 1009.4 |
| 20260507200019 | 69 | 200 | 7.0 | 14.8 | 0.00 | 0.00 | 0.00 | 37 | 1009.6 |
| 20260507195516 | 67 | 222 | 5.2 | 7.0 | 0.00 | 0.00 | 0.00 | 36 | 1009.7 |
| 20260507195014 | 67 | 261 | 3.5 | 6.1 | 0.00 | 0.00 | 0.00 | 35 | 1009.6 |
| 20260507194510 | 68 | 294 | 6.1 | 8.7 | 0.00 | 0.00 | 0.00 | 34 | 1009.7 |
| 20260507194006 | 68 | 244 | 6.1 | 8.7 | 0.00 | 0.00 | 0.00 | 35 | 1009.7 |
| 20260507193504 | 68 | 269 | 5.2 | 7.8 | 0.00 | 0.00 | 0.00 | 35 | 1009.9 |
| 20260507193000 | 67 | 276 | 4.3 | 8.7 | 0.00 | 0.00 | 0.00 | 34 | 1009.8 |
| 20260507192456 | 67 | 275 | 4.3 | 7.0 | 0.00 | 0.00 | 0.00 | 35 | 1009.9 |
| 20260507191953 | 68 | 238 | 2.6 | 6.1 | 0.00 | 0.00 | 0.00 | 35 | 1009.8 |
| 20260507191449 | 69 | 289 | 7.8 | 11.3 | 0.00 | 0.00 | 0.00 | 39 | 1010.3 |
| 20260507190946 | 67 | 245 | 1.7 | 7.8 | 0.00 | 0.00 | 0.00 | 37 | 1009.7 |
| 20260507190444 | 66 | 223 | 3.5 | 7.8 | 0.00 | 0.00 | 0.00 | 36 | 1009.9 |
| 20260507185942 | 67 | 288 | 4.3 | 11.3 | 0.00 | 0.00 | 0.00 | 36 | 1009.9 |
| 20260507185439 | 66 | 258 | 4.3 | 7.0 | 0.00 | 0.00 | 0.00 | 38 | 1010.2 |
| 20260507184936 | 65 | 254 | 5.2 | 9.6 | 0.00 | 0.00 | 0.00 | 36 | 1010.2 |
| 20260507184434 | 66 | 252 | 4.3 | 8.7 | 0.00 | 0.00 | 0.00 | 37 | 1010.2 |
| 20260507183932 | 66 | 257 | 2.6 | 5.2 | 0.00 | 0.00 | 0.00 | 39 | 1010.2 |
| 20260507183428 | 66 | 278 | 5.2 | 6.1 | 0.00 | 0.00 | 0.00 | 37 | 1010.0 |
| 20260507182925 | 65 | 308 | 2.6 | 7.8 | 0.00 | 0.00 | 0.00 | 38 | 1010.4 |
| 20260507182421 | 65 | 300 | 2.6 | 5.2 | 0.00 | 0.00 | 0.00 | 40 | 1010.2 |
| 20260507181918 | 65 | 260 | 4.3 | 7.8 | 0.00 | 0.00 | 0.00 | 40 | 1010.3 |
| 20260507181414 | 65 | 261 | 4.3 | 7.0 | 0.00 | 0.00 | 0.00 | 40 | 1010.3 |
| 20260507180910 | 64 | 257 | 1.7 | 9.6 | 0.00 | 0.00 | 0.00 | 41 | 1010.7 |
| 20260507180407 | 65 | 223 | 2.6 | 9.6 | 0.00 | 0.00 | 0.00 | 40 | 1010.5 |
| 20260507175903 | 65 | 249 | 6.1 | 7.8 | 0.00 | 0.00 | 0.00 | 43 | 1010.6 |
| 20260507175400 | 65 | 248 | 2.6 | 7.8 | 0.00 | 0.00 | 0.00 | 43 | 1010.7 |
| 20260507174858 | 66 | 252 | 2.6 | 8.7 | 0.00 | 0.00 | 0.00 | 43 | 1010.8 |
| 20260507174355 | 67 | 295 | 4.3 | 5.2 | 0.00 | 0.00 | 0.00 | 44 | 1010.8 |
| 20260507173852 | 65 | 322 | 4.3 | 11.3 | 0.00 | 0.00 | 0.00 | 46 | 1011.0 |
| 20260507173349 | 64 | 230 | 2.6 | 4.3 | 0.00 | 0.00 | 0.00 | 47 | 1011.3 |
| 20260507172845 | 63 | 288 | 2.6 | 7.8 | 0.00 | 0.00 | 0.00 | 49 | 1011.2 |
| 20260507172342 | 63 | 211 | 4.3 | 7.0 | 0.00 | 0.00 | 0.00 | 48 | 1011.2 |
| 20260507171838 | 64 | 333 | 5.2 | 8.7 | 0.00 | 0.00 | 0.00 | 48 | 1011.3 |
| 20260507171335 | 64 | 216 | 3.5 | 7.0 | 0.00 | 0.00 | 0.00 | 47 | 1011.6 |
| 20260507170832 | 64 | 243 | 1.7 | 4.3 | 0.00 | 0.00 | 0.00 | 50 | 1011.6 |
| 20260507170329 | 62 | 253 | 3.5 | 5.2 | 0.00 | 0.00 | 0.00 | 51 | 1011.7 |
| 20260507165824 | 62 | 213 | 4.3 | 6.1 | 0.00 | 0.00 | 0.00 | 53 | 1011.9 |
| 20260507165321 | 62 | 262 | 1.7 | 2.6 | 0.00 | 0.00 | 0.00 | 52 | 1012.0 |
| 20260507164817 | 62 | 230 | 2.6 | 7.0 | 0.00 | 0.00 | 0.00 | 54 | 1011.7 |
| 20260507164314 | 61 | 234 | 3.5 | 6.1 | 0.00 | 0.00 | 0.00 | 53 | 1012.1 |
| 20260507163811 | 60 | 241 | 4.3 | 6.1 | 0.00 | 0.00 | 0.00 | 54 | 1012.1 |
| 20260507163309 | 60 | 239 | 3.5 | 9.6 | 0.00 | 0.00 | 0.00 | 56 | 1012.1 |
| 20260507162805 | 60 | 216 | 4.3 | 7.8 | 0.00 | 0.00 | 0.00 | 55 | 1012.0 |
| 20260507162300 | 62 | 239 | 1.7 | 2.6 | 0.00 | 0.00 | 0.00 | 55 | 1012.2 |
| 20260507161758 | 61 | 255 | 0.9 | 2.6 | 0.00 | 0.00 | 0.00 | 55 | 1012.3 |
| 20260507161254 | 58 | 256 | 0.9 | 5.2 | 0.00 | 0.00 | 0.00 | 59 | 1012.3 |
| 20260507160750 | 57 | 253 | 4.3 | 6.1 | 0.00 | 0.00 | 0.00 | 58 | 1012.3 |
| 20260507160247 | 58 | 240 | 2.6 | 6.1 | 0.00 | 0.00 | 0.00 | 60 | 1012.4 |
| 20260507155743 | 58 | 295 | 3.5 | 5.2 | 0.00 | 0.00 | 0.00 | 56 | 1012.4 |
| 20260507155239 | 58 | 237 | 1.7 | 5.2 | 0.00 | 0.00 | 0.00 | 59 | 1012.6 |
| 20260507154736 | 58 | 290 | 6.1 | 7.8 | 0.00 | 0.00 | 0.00 | 58 | 1012.7 |
| 20260507154233 | 57 | 265 | 2.6 | 6.1 | 0.00 | 0.00 | 0.00 | 62 | 1012.6 |
| 20260507153730 | 57 | 251 | 1.7 | 2.6 | 0.00 | 0.00 | 0.00 | 67 | 1012.6 |
| 20260507153226 | 56 | 251 | 2.6 | 5.2 | 0.00 | 0.00 | 0.00 | 64 | 1012.6 |
| 20260507152723 | 55 | 217 | 0.9 | 2.6 | 0.00 | 0.00 | 0.00 | 68 | 1012.5 |
| 20260507152219 | 55 | 244 | 2.6 | 4.3 | 0.00 | 0.00 | 0.00 | 67 | 1012.4 |
| 20260507151715 | 54 | 250 | 1.7 | 1.7 | 0.00 | 0.00 | 0.00 | 69 | 1012.5 |
| 20260507151212 | 53 | 195 | 2.6 | 5.2 | 0.00 | 0.00 | 0.00 | 70 | 1012.0 |
| 20260507150709 | 52 | 43 | 1.7 | 1.7 | 0.00 | 0.00 | 0.00 | 74 | 1012.4 |
| 20260507150206 | 51 | 46 | 2.6 | 2.6 | 0.00 | 0.00 | 0.00 | 75 | 1012.7 |
| 20260507145701 | 51 | 15 | 1.7 | 1.7 | 0.00 | 0.00 | 0.00 | 75 | 1013.1 |
| 20260507145158 | 51 | 341 | 4.3 | 6.1 | 0.00 | 0.00 | 0.00 | 75 | 1013.3 |
| 20260507144654 | 51 | 12 | 2.6 | 6.1 | 0.00 | 0.00 | 0.00 | 75 | 1013.3 |
| 20260507144153 | 51 | 349 | 2.6 | 5.2 | 0.00 | 0.00 | 0.00 | 75 | 1013.2 |
| 20260507143650 | 51 | 33 | 4.3 | 6.1 | 0.00 | 0.00 | 0.00 | 73 | 1013.1 |
| 20260507143147 | 52 | 1 | 3.5 | 5.2 | 0.00 | 0.00 | 0.00 | 72 | 1013.2 |
| 20260507142642 | 52 | 339 | 4.3 | 6.1 | 0.00 | 0.00 | 0.00 | 72 | 1013.3 |
| 20260507142139 | 52 | 345 | 1.7 | 4.3 | 0.00 | 0.00 | 0.00 | 72 | 1013.2 |
| 20260507141635 | 52 | 349 | 2.6 | 4.3 | 0.00 | 0.00 | 0.00 | 71 | 1013.2 |
| 20260507141132 | 52 | 316 | 2.6 | 5.2 | 0.00 | 0.00 | 0.00 | 70 | 1013.0 |
| 20260507140629 | 51 | 288 | 2.6 | 4.3 | 0.00 | 0.00 | 0.00 | 70 | 1013.1 |
| 20260507140126 | 52 | 265 | 2.6 | 4.3 | 0.00 | 0.00 | 0.00 | 70 | 1013.1 |
| 20260507135623 | 51 | 266 | 1.7 | 4.3 | 0.00 | 0.00 | 0.00 | 70 | 1013.1 |
| 20260507135121 | 51 | 303 | 3.5 | 7.0 | 0.00 | 0.00 | 0.00 | 69 | 1012.9 |
| 20260507134616 | 51 | 287 | 0.9 | 2.6 | 0.00 | 0.00 | 0.00 | 71 | 1012.9 |
| 20260507134113 | 51 | 235 | 4.3 | 6.1 | 0.00 | 0.00 | 0.00 | 70 | 1012.7 |
| 20260507133609 | 50 | 226 | 3.5 | 7.0 | 0.00 | 0.00 | 0.00 | 71 | 1012.8 |
| 20260507133107 | 50 | 226 | 6.1 | 8.7 | 0.00 | 0.00 | 0.00 | 71 | 1012.7 |
| 20260507132603 | 49 | 216 | 5.2 | 7.0 | 0.00 | 0.00 | 0.00 | 71 | 1012.5 |
| 20260507132100 | 49 | 251 | 2.6 | 6.1 | 0.00 | 0.00 | 0.00 | 72 | 1012.6 |
| 20260507131557 | 49 | 240 | 2.6 | 6.1 | 0.00 | 0.00 | 0.00 | 72 | 1012.6 |
| 20260507131054 | 49 | 245 | 4.3 | 6.1 | 0.00 | 0.00 | 0.00 | 72 | 1012.6 |
| 20260507130551 | 49 | 255 | 3.5 | 4.3 | 0.00 | 0.00 | 0.00 | 72 | 1012.6 |
| 20260507130049 | 49 | 237 | 2.6 | 8.7 | 0.00 | 0.00 | 0.00 | 72 | 1012.6 |
| 20260507125547 | 48 | 213 | 2.6 | 6.1 | 0.00 | 0.00 | 0.00 | 73 | 1012.5 |
| 20260507125044 | 48 | 242 | 4.3 | 6.1 | 0.00 | 0.00 | 0.00 | 72 | 1012.4 |
| 20260507124540 | 48 | 220 | 4.3 | 7.0 | 0.00 | 0.00 | 0.00 | 72 | 1012.3 |
| 20260507124038 | 48 | 217 | 5.2 | 7.0 | 0.00 | 0.00 | 0.00 | 71 | 1012.4 |
| 20260507123536 | 47 | 197 | 4.3 | 7.0 | 0.00 | 0.00 | 0.00 | 71 | 1012.3 |
| 20260507123033 | 46 | 211 | 3.5 | 6.1 | 0.00 | 0.00 | 0.00 | 72 | 1012.4 |
| 20260507122528 | 46 | 208 | 4.3 | 5.2 | 0.00 | 0.00 | 0.00 | 74 | 1012.3 |
| 20260507122024 | 45 | 206 | 4.3 | 6.1 | 0.00 | 0.00 | 0.00 | 74 | 1012.3 |
| 20260507121520 | 45 | 219 | 3.5 | 5.2 | 0.00 | 0.00 | 0.00 | 74 | 1012.3 |
| 20260507121016 | 44 | 203 | 3.5 | 4.3 | 0.00 | 0.00 | 0.00 | 73 | 1012.2 |
| 20260507120512 | 44 | 215 | 2.6 | 5.2 | 0.00 | 0.00 | 0.00 | 73 | 1012.4 |
| 20260507120010 | 43 | 220 | 3.5 | 4.3 | 0.00 | 0.00 | 0.00 | 73 | 1012.2 |
| 20260507115505 | 43 | 208 | 3.5 | 4.3 | 0.00 | 0.00 | 0.00 | 74 | 1012.3 |
| 20260507115001 | 42 | 216 | 3.5 | 5.2 | 0.00 | 0.00 | 0.00 | 74 | 1012.3 |
| 20260507114458 | 42 | 225 | 4.3 | 5.2 | 0.00 | 0.00 | 0.00 | 74 | 1012.3 |
| 20260507113955 | 42 | 224 | 2.6 | 4.3 | 0.00 | 0.00 | 0.00 | 73 | 1012.1 |
| 20260507113452 | 41 | 224 | 3.5 | 5.2 | 0.00 | 0.00 | 0.00 | 74 | 1012.3 |
| 20260507112949 | 41 | 218 | 2.6 | 4.3 | 0.00 | 0.00 | 0.00 | 73 | 1012.2 |
| 20260507112447 | 41 | 239 | 2.6 | 4.3 | 0.00 | 0.00 | 0.00 | 73 | 1012.3 |
| 20260507111943 | 41 | 219 | 3.5 | 5.2 | 0.00 | 0.00 | 0.00 | 73 | 1012.2 |
| 20260507111441 | 41 | 221 | 3.5 | 5.2 | 0.00 | 0.00 | 0.00 | 72 | 1012.1 |
| 20260507110937 | 41 | 209 | 3.5 | 4.3 | 0.00 | 0.00 | 0.00 | 72 | 1012.0 |
| 20260507110433 | 41 | 218 | 4.3 | 6.1 | 0.00 | 0.00 | 0.00 | 71 | 1012.1 |
| 20260507105930 | 41 | 222 | 3.5 | 6.1 | 0.00 | 0.00 | 0.00 | 71 | 1012.1 |
| 20260507105427 | 41 | 218 | 4.3 | 5.2 | 0.00 | 0.00 | 0.00 | 71 | 1012.1 |
| 20260507104923 | 41 | 218 | 2.6 | 5.2 | 0.00 | 0.00 | 0.00 | 70 | 1012.2 |
| 20260507104421 | 41 | 223 | 3.5 | 5.2 | 0.00 | 0.00 | 0.00 | 69 | 1012.1 |
| 20260507103916 | 41 | 217 | 3.5 | 5.2 | 0.00 | 0.00 | 0.00 | 69 | 1012.3 |
| 20260507103413 | 41 | 217 | 3.5 | 5.2 | 0.00 | 0.00 | 0.00 | 69 | 1012.3 |
| 20260507102909 | 41 | 209 | 3.5 | 5.2 | 0.00 | 0.00 | 0.00 | 69 | 1012.4 |
| 20260507102406 | 41 | 224 | 2.6 | 5.2 | 0.00 | 0.00 | 0.00 | 68 | 1012.6 |
| 20260507101902 | 41 | 218 | 3.5 | 5.2 | 0.00 | 0.00 | 0.00 | 68 | 1012.4 |
| 20260507101402 | 41 | 222 | 1.7 | 2.6 | 0.00 | 0.00 | 0.00 | 68 | 1012.5 |
| 20260507100859 | 41 | 206 | 1.7 | 1.7 | 0.00 | 0.00 | 0.00 | 68 | 1012.5 |
| 20260507100357 | 41 | 199 | 1.7 | 2.6 | 0.00 | 0.00 | 0.00 | 68 | 1012.7 |
| 20260507095855 | 42 | 192 | 0.9 | 4.3 | 0.00 | 0.00 | 0.00 | 67 | 1012.6 |
| 20260507095351 | 42 | 219 | 0.9 | 1.7 | 0.00 | 0.00 | 0.00 | 67 | 1012.9 |
| 20260507094849 | 42 | 213 | 0.9 | 1.7 | 0.00 | 0.00 | 0.00 | 66 | 1012.8 |
| 20260507094345 | 43 | 196 | 0.9 | 2.6 | 0.00 | 0.00 | 0.00 | 65 | 1012.8 |
| 20260507093842 | 43 | 221 | 0.9 | 1.7 | 0.00 | 0.00 | 0.00 | 65 | 1012.9 |
| 20260507093340 | 43 | 216 | 1.7 | 2.6 | 0.00 | 0.00 | 0.00 | 64 | 1012.9 |
| 20260507092839 | 43 | 227 | 1.7 | 1.7 | 0.00 | 0.00 | 0.00 | 64 | 1012.9 |
| 20260507092334 | 43 | 221 | 2.6 | 2.6 | 0.00 | 0.00 | 0.00 | 64 | 1012.9 |
| 20260507091831 | 43 | 220 | 1.7 | 5.2 | 0.00 | 0.00 | 0.00 | 64 | 1013.1 |
| 20260507091327 | 43 | 219 | 0.9 | 2.6 | 0.00 | 0.00 | 0.00 | 64 | 1013.0 |
| 20260507090823 | 43 | 214 | 2.6 | 4.3 | 0.00 | 0.00 | 0.00 | 64 | 1013.0 |
| 20260507090320 | 43 | 221 | 0.9 | 2.6 | 0.00 | 0.00 | 0.00 | 65 | 1013.3 |
| 20260507085817 | 43 | 186 | 2.6 | 4.3 | 0.00 | 0.00 | 0.00 | 65 | 1013.2 |
| 20260507085313 | 42 | 221 | 1.7 | 1.7 | 0.00 | 0.00 | 0.00 | 66 | 1013.4 |
| 20260507084811 | 42 | 220 | 2.6 | 4.3 | 0.00 | 0.00 | 0.00 | 66 | 1013.7 |
| 20260507084307 | 42 | 219 | 4.3 | 6.1 | 0.00 | 0.00 | 0.00 | 64 | 1013.3 |
| 20260507083805 | 42 | 220 | 2.6 | 2.6 | 0.00 | 0.00 | 0.00 | 66 | 1013.6 |
| 20260507083301 | 42 | 221 | 1.7 | 1.7 | 0.00 | 0.00 | 0.00 | 66 | 1013.6 |
| 20260507082757 | 42 | 216 | 4.3 | 5.2 | 0.00 | 0.00 | 0.00 | 65 | 1013.9 |
| 20260507082253 | 42 | 224 | 4.3 | 5.2 | 0.00 | 0.00 | 0.00 | 65 | 1013.7 |
| 20260507081750 | 42 | 217 | 3.5 | 5.2 | 0.00 | 0.00 | 0.00 | 65 | 1014.0 |
| 20260507081246 | 42 | 208 | 2.6 | 5.2 | 0.00 | 0.00 | 0.00 | 66 | 1014.0 |
| 20260507080743 | 42 | 216 | 2.6 | 2.6 | 0.00 | 0.00 | 0.00 | 66 | 1014.1 |
| 20260507080239 | 42 | 217 | 2.6 | 4.3 | 0.00 | 0.00 | 0.00 | 66 | 1013.9 |
| 20260507075734 | 42 | 215 | 2.6 | 5.2 | 0.00 | 0.00 | 0.00 | 65 | 1013.9 |
| 20260507075231 | 42 | 208 | 2.6 | 5.2 | 0.00 | 0.00 | 0.00 | 64 | 1014.0 |
| 20260507074727 | 42 | 212 | 2.6 | 2.6 | 0.00 | 0.00 | 0.00 | 65 | 1013.9 |
| 20260507074226 | 42 | 213 | 2.6 | 4.3 | 0.00 | 0.00 | 0.00 | 65 | 1014.2 |
| 20260507073722 | 42 | 214 | 2.6 | 4.3 | 0.00 | 0.00 | 0.00 | 64 | 1014.4 |
| 20260507073218 | 42 | 213 | 2.6 | 4.3 | 0.00 | 0.00 | 0.00 | 64 | 1014.3 |
| 20260507072717 | 42 | 209 | 2.6 | 2.6 | 0.00 | 0.00 | 0.00 | 66 | 1014.3 |
| 20260507072213 | 42 | 217 | 4.3 | 5.2 | 0.00 | 0.00 | 0.00 | 65 | 1014.3 |
| 20260507071711 | 41 | 219 | 4.3 | 6.1 | 0.00 | 0.00 | 0.00 | 65 | 1014.3 |
| 20260507071207 | 41 | 211 | 3.5 | 5.2 | 0.00 | 0.00 | 0.00 | 65 | 1014.6 |
| 20260507070704 | 41 | 216 | 3.5 | 5.2 | 0.00 | 0.00 | 0.00 | 65 | 1014.6 |
| 20260507070201 | 41 | 217 | 4.3 | 5.2 | 0.00 | 0.00 | 0.00 | 65 | 1014.6 |
| 20260507065657 | 41 | 221 | 3.5 | 5.2 | 0.00 | 0.00 | 0.00 | 65 | 1014.9 |
| 20260507065154 | 40 | 218 | 2.6 | 4.3 | 0.00 | 0.00 | 0.00 | 66 | 1014.8 |
| 20260507064652 | 40 | 218 | 3.5 | 4.3 | 0.00 | 0.00 | 0.00 | 67 | 1014.8 |
| 20260507064150 | 40 | 223 | 2.6 | 2.6 | 0.00 | 0.00 | 0.00 | 67 | 1014.9 |
| 20260507063648 | 40 | 220 | 3.5 | 5.2 | 0.00 | 0.00 | 0.00 | 66 | 1015.0 |
| 20260507063144 | 40 | 228 | 0.9 | 2.6 | 0.00 | 0.00 | 0.00 | 69 | 1014.9 |
| 20260507062641 | 40 | 224 | 2.6 | 2.6 | 0.00 | 0.00 | 0.00 | 68 | 1015.0 |
| 20260507062139 | 41 | 225 | 2.6 | 2.6 | 0.00 | 0.00 | 0.00 | 67 | 1015.1 |
| 20260507061637 | 41 | 225 | 2.6 | 4.3 | 0.00 | 0.00 | 0.00 | 66 | 1015.2 |
| 20260507061134 | 40 | 220 | 2.6 | 2.6 | 0.00 | 0.00 | 0.00 | 67 | 1015.2 |
| 20260507060632 | 41 | 221 | 2.6 | 4.3 | 0.00 | 0.00 | 0.00 | 67 | 1015.1 |
| 20260507060128 | 40 | 231 | 0.9 | 1.7 | 0.00 | 0.00 | 0.00 | 69 | 1015.3 |
| 20260507055624 | 40 | 231 | 1.7 | 1.7 | 0.00 | 0.00 | 0.00 | 69 | 1015.4 |
| 20260507055120 | 40 | 231 | 0.9 | 1.7 | 0.00 | 0.00 | 0.00 | 68 | 1015.3 |
| 20260507054616 | 41 | 232 | 1.7 | 2.6 | 0.00 | 0.00 | 0.00 | 67 | 1015.4 |
| 20260507054113 | 41 | 238 | 1.7 | 1.7 | 0.00 | 0.00 | 0.00 | 67 | 1015.3 |
| 20260507053611 | 41 | 239 | 0.9 | 0.9 | 0.00 | 0.00 | 0.00 | 67 | 1015.4 |
| 20260507053109 | 41 | 239 | 0.9 | 1.7 | 0.00 | 0.00 | 0.00 | 67 | 1015.4 |
| 20260507052607 | 41 | 238 | 0.9 | 1.7 | 0.00 | 0.00 | 0.00 | 66 | 1015.4 |
| 20260507052103 | 42 | 237 | 0.9 | 1.7 | 0.00 | 0.00 | 0.00 | 64 | 1015.4 |
| 20260507051601 | 42 | 244 | 1.7 | 1.7 | 0.00 | 0.00 | 0.00 | 62 | 1015.5 |
| 20260507051057 | 42 | 245 | 0.9 | 1.7 | 0.00 | 0.00 | 0.00 | 61 | 1015.4 |
| 20260507050554 | 42 | 245 | 0.9 | 0.9 | 0.00 | 0.00 | 0.00 | 61 | 1015.7 |
| 20260507050051 | 43 | 245 | 0.9 | 0.9 | 0.00 | 0.00 | 0.00 | 59 | 1015.6 |
| 20260507045548 | 43 | 245 | 0.9 | 0.9 | 0.00 | 0.00 | 0.00 | 59 | 1015.5 |
| 20260507045045 | 43 | 245 | 0.9 | 0.9 | 0.00 | 0.00 | 0.00 | 59 | 1015.6 |
| 20260507044541 | 44 | 245 | 0.9 | 0.9 | 0.00 | 0.00 | 0.00 | 58 | 1015.7 |
| 20260507044038 | 44 | 245 | 0.9 | 0.9 | 0.00 | 0.00 | 0.00 | 57 | 1015.8 |
| 20260507043534 | 44 | 245 | 0.9 | 0.9 | 0.00 | 0.00 | 0.00 | 57 | 1015.7 |
| 20260507043032 | 44 | 245 | 0.9 | 0.9 | 0.00 | 0.00 | 0.00 | 56 | 1015.7 |
| 20260507042527 | 44 | 245 | 0.9 | 0.9 | 0.00 | 0.00 | 0.00 | 56 | 1015.9 |
| 20260507042023 | 44 | 245 | 0.9 | 1.7 | 0.00 | 0.00 | 0.00 | 56 | 1015.9 |
| 20260507041520 | 44 | 245 | 0.9 | 0.9 | 0.00 | 0.00 | 0.00 | 56 | 1015.8 |
| 20260507041017 | 44 | 244 | 0.9 | 1.7 | 0.00 | 0.00 | 0.00 | 56 | 1015.9 |
| 20260507040513 | 45 | 244 | 0.9 | 1.7 | 0.00 | 0.00 | 0.00 | 54 | 1015.9 |
| 20260507040009 | 45 | 244 | 0.9 | 1.7 | 0.00 | 0.00 | 0.00 | 54 | 1015.9 |
| 20260507035506 | 45 | 245 | 0.9 | 0.9 | 0.00 | 0.00 | 0.00 | 53 | 1015.9 |
| 20260507035002 | 45 | 245 | 0.9 | 0.9 | 0.00 | 0.00 | 0.00 | 55 | 1015.9 |
| 20260507034459 | 44 | 245 | 0.9 | 0.9 | 0.00 | 0.00 | 0.00 | 54 | 1016.0 |
| 20260507033957 | 44 | 245 | 0.9 | 1.7 | 0.00 | 0.00 | 0.00 | 55 | 1016.0 |
| 20260507033455 | 44 | 245 | 0.9 | 0.9 | 0.00 | 0.00 | 0.00 | 55 | 1016.1 |
| 20260507032952 | 45 | 244 | 0.9 | 0.9 | 0.00 | 0.00 | 0.00 | 54 | 1016.1 |